Location: Melara
(45.0500°N, 11.1833°E)
Time: 02:08:19
(UTC+00:00)

COSMOS 2441 - Pass Details

Date: 26 May 2022
Orbit: 707 x 732 km, 98.1° (Epoch: 26 June)

Event Time Altitude Azimuth Distance (km) Brightness Sun altitude
Rises 02:11:19 0° 11° (N) 3,152 8.8 -12.3°
Reaches altitude 10° 02:13:36 10° 10° (N) 2,223 7.8 -12.0°
Maximum altitude 02:18:28 73° 286° (WNW) 754 4.4 -11.4°
Enters shadow 02:22:50 13° 203° (SSW) 2,022 6.1 -10.9°
